contact:dominique.lefevre@mio.osupytheas.fr, maurice.libes@osupytheas.fr, didier.mallarino@osupytheas.fr
Project:EMSO http://www.emso-fr.org/EMSO-France
Depth: 2436.0 m
Title:EMSO Ligure Ouest : Data MII capteur CSTAR
DateTime,Latitude,Longitude,Instrument_Serial,Reference_Counts,Signal_Counts,Corrected_Signal_raw_counts,Calculated_Beam_c_inverse_meters,Internal_thermistor_counts
DateTime,Latitude,Longitude,Instrument_Serial,Reference_Counts,Signal_Counts,Corrected_Signal_raw_counts,Calculated_Beam_c_inverse_meters,Internal_thermistor_counts
2023-02-20T00:00:43,42.805,6.029,CST-1368DR,4378,4858,11789,01.125,551
2023-02-20T00:03:45,42.805,6.029,CST-1368DR,4378,4857,11787,01.125,551
2023-02-20T00:06:46,42.805,6.029,CST-1368DR,4378,4858,11790,01.124,551
2023-02-20T00:09:48,42.805,6.029,CST-1368DR,4378,4858,11790,01.124,551
2023-02-20T00:12:49,42.805,6.029,CST-1368DR,4378,4857,11787,01.125,551
2023-02-20T00:15:51,42.805,6.029,CST-1368DR,4378,4858,11789,01.125,551
2023-02-20T00:18:53,42.805,6.029,CST-1368DR,4378,4858,11790,01.124,551
2023-02-20T00:21:54,42.805,6.029,CST-1368DR,4377,4856,11788,01.125,551
2023-02-20T00:24:56,42.805,6.029,CST-1368DR,4378,4856,11784,01.126,551
2023-02-20T00:27:57,42.805,6.029,CST-1368DR,4378,4857,11787,01.125,551
2023-02-20T00:30:59,42.805,6.029,CST-1368DR,4378,4857,11787,01.125,551
2023-02-20T00:34:00,42.805,6.029,CST-1368DR,4378,4854,11780,01.128,551
2023-02-20T00:37:02,42.805,6.029,CST-1368DR,4378,4860,11794,01.123,551
2023-02-20T00:40:04,42.805,6.029,CST-1368DR,4378,4858,11788,01.125,551
2023-02-20T00:43:05,42.805,6.029,CST-1368DR,4378,4857,11788,01.125,551
2023-02-20T00:46:07,42.805,6.029,CST-1368DR,4378,4855,11782,01.127,551
2023-02-20T00:49:08,42.805,6.029,CST-1368DR,4378,4855,11782,01.127,551
2023-02-20T00:52:10,42.805,6.029,CST-1368DR,4378,4853,11777,01.129,551
2023-02-20T00:55:12,42.805,6.029,CST-1368DR,4378,4855,11781,01.127,551
2023-02-20T00:58:13,42.805,6.029,CST-1368DR,4378,4854,11779,01.128,551
2023-02-20T01:01:15,42.805,6.029,CST-1368DR,4378,4853,11777,01.129,551
2023-02-20T01:04:16,42.805,6.029,CST-1368DR,4378,4853,11777,01.129,551
2023-02-20T01:07:18,42.805,6.029,CST-1368DR,4377,4852,11777,01.129,551
2023-02-20T01:10:19,42.805,6.029,CST-1368DR,4378,4854,11779,01.128,551
2023-02-20T01:13:21,42.805,6.029,CST-1368DR,4378,4856,11784,01.126,551
2023-02-20T01:16:23,42.805,6.029,CST-1368DR,4378,4853,11777,01.129,551
2023-02-20T01:19:24,42.805,6.029,CST-1368DR,4378,4855,11781,01.127,551
2023-02-20T01:22:26,42.805,6.029,CST-1368DR,4378,4856,11783,01.127,551
2023-02-20T01:25:27,42.805,6.029,CST-1368DR,4378,4855,11783,01.127,551
2023-02-20T01:28:29,42.805,6.029,CST-1368DR,4378,4851,11771,01.131,551
2023-02-20T01:31:30,42.805,6.029,CST-1368DR,4377,4855,11785,01.126,551
2023-02-20T01:34:32,42.805,6.029,CST-1368DR,4377,4855,11785,01.126,551
2023-02-20T01:37:34,42.805,6.029,CST-1368DR,4377,4850,11773,01.130,551
2023-02-20T01:40:35,42.805,6.029,CST-1368DR,4377,4854,11783,01.127,551
2023-02-20T01:43:37,42.805,6.029,CST-1368DR,4378,4856,11784,01.126,551
2023-02-20T01:46:38,42.805,6.029,CST-1368DR,4378,4853,11778,01.128,551
2023-02-20T01:49:40,42.805,6.029,CST-1368DR,4378,4854,11779,01.128,551
2023-02-20T01:52:42,42.805,6.029,CST-1368DR,4378,4855,11782,01.127,551
2023-02-20T01:55:43,42.805,6.029,CST-1368DR,4378,4852,11774,01.130,551
2023-02-20T01:58:45,42.805,6.029,CST-1368DR,4378,4865,11806,01.119,551
2023-02-20T02:01:46,42.805,6.029,CST-1368DR,4377,4854,11783,01.127,551
2023-02-20T02:04:48,42.805,6.029,CST-1368DR,4378,4857,11786,01.126,551
2023-02-20T02:07:49,42.805,6.029,CST-1368DR,4377,4858,11791,01.124,551
2023-02-20T02:10:51,42.805,6.029,CST-1368DR,4378,4857,11787,01.125,551
2023-02-20T02:13:53,42.805,6.029,CST-1368DR,4378,4855,11781,01.127,551
2023-02-20T02:16:54,42.805,6.029,CST-1368DR,4378,4852,11775,01.129,551
2023-02-20T02:19:56,42.805,6.029,CST-1368DR,4378,4855,11781,01.127,551
2023-02-20T02:22:57,42.805,6.029,CST-1368DR,4378,4857,11787,01.125,551
2023-02-20T02:25:59,42.805,6.029,CST-1368DR,4378,4855,11782,01.127,551
2023-02-20T02:29:00,42.805,6.029,CST-1368DR,4378,4854,11779,01.128,551
2023-02-20T02:32:02,42.805,6.029,CST-1368DR,4378,4855,11781,01.127,551
2023-02-20T02:35:04,42.805,6.029,CST-1368DR,4378,4855,11782,01.127,551
2023-02-20T02:38:05,42.805,6.029,CST-1368DR,4378,4853,11777,01.129,551
2023-02-20T02:41:07,42.805,6.029,CST-1368DR,4378,4850,11770,01.131,551
2023-02-20T02:44:08,42.805,6.029,CST-1368DR,4378,4852,11776,01.129,551
2023-02-20T02:47:10,42.805,6.029,CST-1368DR,4378,4852,11774,01.130,551
2023-02-20T02:50:12,42.805,6.029,CST-1368DR,4378,4855,11782,01.127,551
2023-02-20T02:53:13,42.805,6.029,CST-1368DR,4378,4854,11779,01.128,551
2023-02-20T02:56:15,42.805,6.029,CST-1368DR,4377,4853,11779,01.128,551
2023-02-20T02:59:16,42.805,6.029,CST-1368DR,4378,4854,11779,01.128,551
2023-02-20T03:02:18,42.805,6.029,CST-1368DR,4378,4855,11782,01.127,551
2023-02-20T03:05:19,42.805,6.029,CST-1368DR,4377,4855,11784,01.126,551
2023-02-20T03:08:21,42.805,6.029,CST-1368DR,4377,4857,11788,01.125,551
2023-02-20T03:11:23,42.805,6.029,CST-1368DR,4378,4857,11787,01.125,551
2023-02-20T03:14:24,42.805,6.029,CST-1368DR,4378,4855,11783,01.127,551
2023-02-20T03:17:26,42.805,6.029,CST-1368DR,4378,4854,11780,01.128,551
2023-02-20T03:20:27,42.805,6.029,CST-1368DR,4378,4856,11784,01.126,551
2023-02-20T03:23:29,42.805,6.029,CST-1368DR,4378,4859,11791,01.124,551
2023-02-20T03:26:30,42.805,6.029,CST-1368DR,4378,4855,11782,01.127,551
2023-02-20T03:29:32,42.805,6.029,CST-1368DR,4377,4853,11779,01.128,551
2023-02-20T03:32:34,42.805,6.029,CST-1368DR,4378,4858,11790,01.124,551
2023-02-20T03:35:35,42.805,6.029,CST-1368DR,4378,4856,11783,01.127,551
2023-02-20T03:38:37,42.805,6.029,CST-1368DR,4378,4855,11782,01.127,551
2023-02-20T03:41:38,42.805,6.029,CST-1368DR,4377,4853,11780,01.128,551
2023-02-20T03:44:40,42.805,6.029,CST-1368DR,4378,4854,11780,01.128,551
2023-02-20T03:47:42,42.805,6.029,CST-1368DR,4378,4856,11785,01.126,551
2023-02-20T03:50:43,42.805,6.029,CST-1368DR,4377,4857,11790,01.124,551
2023-02-20T03:53:45,42.805,6.029,CST-1368DR,4378,4856,11783,01.127,551
2023-02-20T03:56:46,42.805,6.029,CST-1368DR,4377,4856,11788,01.125,551
2023-02-20T03:59:48,42.805,6.029,CST-1368DR,4377,4856,11786,01.126,551
2023-02-20T04:02:49,42.805,6.029,CST-1368DR,4378,4857,11786,01.126,551
2023-02-20T04:05:51,42.805,6.029,CST-1368DR,4377,4857,11788,01.125,551
2023-02-20T04:08:53,42.805,6.029,CST-1368DR,4377,4856,11787,01.125,551
2023-02-20T04:11:54,42.805,6.029,CST-1368DR,4378,4858,11789,01.125,551
2023-02-20T04:14:56,42.805,6.029,CST-1368DR,4377,4855,11784,01.126,551
2023-02-20T04:17:57,42.805,6.029,CST-1368DR,4378,4855,11782,01.127,551
2023-02-20T04:20:59,42.805,6.029,CST-1368DR,4377,4855,11785,01.126,551
2023-02-20T04:24:00,42.805,6.029,CST-1368DR,4378,4854,11780,01.128,551
2023-02-20T04:27:02,42.805,6.029,CST-1368DR,4378,4855,11781,01.127,551
2023-02-20T04:30:04,42.805,6.029,CST-1368DR,4378,4854,11779,01.128,551
2023-02-20T04:33:05,42.805,6.029,CST-1368DR,4378,4855,11781,01.127,551
2023-02-20T04:36:07,42.805,6.029,CST-1368DR,4377,4855,11784,01.126,551
2023-02-20T04:39:08,42.805,6.029,CST-1368DR,4377,4855,11785,01.126,551
2023-02-20T04:42:10,42.805,6.029,CST-1368DR,4377,4858,11793,01.123,551
2023-02-20T04:45:12,42.805,6.029,CST-1368DR,4377,4855,11784,01.126,551
2023-02-20T04:48:13,42.805,6.029,CST-1368DR,4378,4854,11780,01.128,551
2023-02-20T04:51:15,42.805,6.029,CST-1368DR,4378,4859,11791,01.124,551
2023-02-20T04:54:16,42.805,6.029,CST-1368DR,4377,4856,11787,01.125,551
2023-02-20T04:57:18,42.805,6.029,CST-1368DR,4377,4854,11782,01.127,551
2023-02-20T05:00:19,42.805,6.029,CST-1368DR,4377,4858,11792,01.123,551
2023-02-20T05:03:21,42.805,6.029,CST-1368DR,4377,4857,11789,01.125,551
2023-02-20T05:06:23,42.805,6.029,CST-1368DR,4377,4857,11788,01.125,551
2023-02-20T05:09:24,42.805,6.029,CST-1368DR,4377,4854,11782,01.127,551
2023-02-20T05:12:26,42.805,6.029,CST-1368DR,4377,4856,11787,01.125,551
2023-02-20T05:15:27,42.805,6.029,CST-1368DR,4378,4854,11780,01.128,551
2023-02-20T05:18:29,42.805,6.029,CST-1368DR,4377,4855,11784,01.126,551
2023-02-20T05:21:30,42.805,6.029,CST-1368DR,4377,4855,11785,01.126,551
2023-02-20T05:24:32,42.805,6.029,CST-1368DR,4377,4857,11790,01.124,551
2023-02-20T05:27:34,42.805,6.029,CST-1368DR,4378,4855,11781,01.127,551
2023-02-20T05:30:35,42.805,6.029,CST-1368DR,4377,4855,11785,01.126,551
2023-02-20T05:33:37,42.805,6.029,CST-1368DR,4377,4856,11787,01.125,551
2023-02-20T05:36:38,42.805,6.029,CST-1368DR,4377,4858,11792,01.123,551
2023-02-20T05:39:40,42.805,6.029,CST-1368DR,4377,4857,11788,01.125,551
2023-02-20T05:42:41,42.805,6.029,CST-1368DR,4377,4853,11781,01.127,551
2023-02-20T05:45:43,42.805,6.029,CST-1368DR,4377,4857,11790,01.124,551
2023-02-20T05:48:45,42.805,6.029,CST-1368DR,4377,4862,11801,01.120,551
2023-02-20T05:51:46,42.805,6.029,CST-1368DR,4377,4857,11790,01.124,551
2023-02-20T05:54:48,42.805,6.029,CST-1368DR,4377,4860,11796,01.122,551
2023-02-20T05:57:49,42.805,6.029,CST-1368DR,4377,4858,11792,01.123,551
2023-02-20T06:00:51,42.805,6.029,CST-1368DR,4377,4855,11784,01.126,551
2023-02-20T06:03:53,42.805,6.029,CST-1368DR,4377,4860,11796,01.122,551
2023-02-20T06:06:54,42.805,6.029,CST-1368DR,4377,4861,11799,01.121,551
2023-02-20T06:09:56,42.805,6.029,CST-1368DR,4377,4862,11801,01.120,551
2023-02-20T06:12:57,42.805,6.029,CST-1368DR,4377,4863,11803,01.120,551
2023-02-20T06:15:59,42.805,6.029,CST-1368DR,4377,4858,11791,01.124,551
2023-02-20T06:19:00,42.805,6.029,CST-1368DR,4377,4859,11793,01.123,551
2023-02-20T06:22:02,42.805,6.029,CST-1368DR,4377,4859,11793,01.123,551
2023-02-20T06:25:04,42.805,6.029,CST-1368DR,4377,4861,11799,01.121,551
2023-02-20T06:28:05,42.805,6.029,CST-1368DR,4377,4861,11799,01.121,551
2023-02-20T06:31:07,42.805,6.029,CST-1368DR,4377,4859,11793,01.123,551
2023-02-20T06:34:08,42.805,6.029,CST-1368DR,4377,4858,11792,01.123,551
2023-02-20T06:37:10,42.805,6.029,CST-1368DR,4377,4861,11799,01.121,551
2023-02-20T06:40:11,42.805,6.029,CST-1368DR,4377,4858,11792,01.123,551
2023-02-20T06:43:13,42.805,6.029,CST-1368DR,4377,4860,11796,01.122,551
2023-02-20T06:46:15,42.805,6.029,CST-1368DR,4377,4856,11787,01.125,551
2023-02-20T06:49:16,42.805,6.029,CST-1368DR,4378,4858,11790,01.124,551
2023-02-20T06:52:18,42.805,6.029,CST-1368DR,4377,4861,11800,01.121,551
2023-02-20T06:55:19,42.805,6.029,CST-1368DR,4378,4861,11796,01.122,551
2023-02-20T06:58:21,42.805,6.029,CST-1368DR,4378,4864,11804,01.119,551
2023-02-20T07:01:23,42.805,6.029,CST-1368DR,4377,4858,11793,01.123,551
2023-02-20T07:04:24,42.805,6.029,CST-1368DR,4377,4849,11770,01.131,551
2023-02-20T07:07:26,42.805,6.029,CST-1368DR,4377,4856,11788,01.125,551
2023-02-20T07:10:27,42.805,6.029,CST-1368DR,4377,4859,11795,01.122,551
2023-02-20T07:13:29,42.805,6.029,CST-1368DR,4377,4860,11797,01.122,551
2023-02-20T07:20:06,42.805,6.029,CST-1368DR,4378,4851,11773,01.130,551
2023-02-20T07:23:08,42.805,6.029,CST-1368DR,4378,4860,11795,01.122,551
2023-02-20T07:26:09,42.805,6.029,CST-1368DR,4377,4861,11799,01.121,551
2023-02-20T07:29:11,42.805,6.029,CST-1368DR,4378,4860,11794,01.123,551
2023-02-20T07:32:12,42.805,6.029,CST-1368DR,4377,4861,11799,01.121,551
2023-02-20T07:35:14,42.805,6.029,CST-1368DR,4377,4857,11790,01.124,551
2023-02-20T07:38:16,42.805,6.029,CST-1368DR,4377,4858,11792,01.123,551
2023-02-20T07:41:17,42.805,6.029,CST-1368DR,4377,4859,11795,01.122,551
2023-02-20T07:44:19,42.805,6.029,CST-1368DR,4377,4859,11794,01.123,551
2023-02-20T07:47:20,42.805,6.029,CST-1368DR,4377,4859,11794,01.123,551
2023-02-20T07:50:22,42.805,6.029,CST-1368DR,4377,4857,11790,01.124,551
2023-02-20T07:53:23,42.805,6.029,CST-1368DR,4377,4855,11784,01.126,551
2023-02-20T07:56:25,42.805,6.029,CST-1368DR,4377,4860,11796,01.122,551
2023-02-20T07:59:27,42.805,6.029,CST-1368DR,4377,4859,11793,01.123,551
2023-02-20T08:02:28,42.805,6.029,CST-1368DR,4377,4859,11795,01.122,551
2023-02-20T08:05:30,42.805,6.029,CST-1368DR,4377,4858,11793,01.123,551
2023-02-20T08:08:31,42.805,6.029,CST-1368DR,4377,4860,11796,01.122,551
2023-02-20T08:11:33,42.805,6.029,CST-1368DR,4377,4858,11791,01.124,551
2023-02-20T08:14:35,42.805,6.029,CST-1368DR,4377,4856,11786,01.126,551
2023-02-20T08:17:36,42.805,6.029,CST-1368DR,4377,4859,11793,01.123,551
2023-02-20T08:20:38,42.805,6.029,CST-1368DR,4377,4861,11798,01.121,551
2023-02-20T08:23:39,42.805,6.029,CST-1368DR,4377,4843,11756,01.136,551
2023-02-20T08:26:41,42.805,6.029,CST-1368DR,4377,4840,11748,01.138,551
2023-02-20T08:29:42,42.805,6.029,CST-1368DR,4377,4841,11751,01.137,551
2023-02-20T08:32:44,42.805,6.029,CST-1368DR,4377,4842,11752,01.137,551
2023-02-20T08:35:46,42.805,6.029,CST-1368DR,4377,4840,11748,01.138,551
2023-02-20T08:38:47,42.805,6.029,CST-1368DR,4377,4838,11744,01.140,551
2023-02-20T08:41:49,42.805,6.029,CST-1368DR,4377,4837,11741,01.141,551
2023-02-20T08:44:50,42.805,6.029,CST-1368DR,4377,4840,11748,01.138,551
2023-02-20T08:47:52,42.805,6.029,CST-1368DR,4377,4842,11753,01.137,551
2023-02-20T08:50:53,42.805,6.029,CST-1368DR,4377,4843,11756,01.136,551
2023-02-20T08:53:55,42.805,6.029,CST-1368DR,4377,4841,11751,01.137,551
2023-02-20T08:56:57,42.805,6.029,CST-1368DR,4377,4841,11751,01.137,551
2023-02-20T08:59:58,42.805,6.029,CST-1368DR,4377,4840,11747,01.139,551
2023-02-20T09:03:00,42.805,6.029,CST-1368DR,4377,4845,11760,01.134,551
2023-02-20T09:06:01,42.805,6.029,CST-1368DR,4377,4844,11757,01.135,551
2023-02-20T09:09:03,42.805,6.029,CST-1368DR,4377,4844,11758,01.135,551
2023-02-20T09:12:05,42.805,6.029,CST-1368DR,4377,4844,11758,01.135,551
2023-02-20T09:15:06,42.805,6.029,CST-1368DR,4377,4848,11767,01.132,551
2023-02-20T09:18:08,42.805,6.029,CST-1368DR,4377,4844,11759,01.135,551
2023-02-20T09:21:09,42.805,6.029,CST-1368DR,4377,4845,11760,01.134,551
2023-02-20T09:24:11,42.805,6.029,CST-1368DR,4377,4831,11726,01.146,551
2023-02-20T09:27:12,42.805,6.029,CST-1368DR,4377,4847,11764,01.133,551
2023-02-20T09:30:14,42.805,6.029,CST-1368DR,4377,4847,11766,01.132,551
2023-02-20T09:33:16,42.805,6.029,CST-1368DR,4377,4845,11761,01.134,551
2023-02-20T09:36:17,42.805,6.029,CST-1368DR,4377,4845,11760,01.134,551
2023-02-20T09:39:19,42.805,6.029,CST-1368DR,4377,4844,11757,01.135,551
2023-02-20T09:42:20,42.805,6.029,CST-1368DR,4377,4849,11770,01.131,551
2023-02-20T09:45:22,42.805,6.029,CST-1368DR,4377,4846,11763,01.133,551
2023-02-20T09:48:23,42.805,6.029,CST-1368DR,4377,4844,11757,01.135,551
2023-02-20T09:51:25,42.805,6.029,CST-1368DR,4377,4845,11761,01.134,551
2023-02-20T09:54:27,42.805,6.029,CST-1368DR,4377,4846,11764,01.133,551
2023-02-20T09:57:28,42.805,6.029,CST-1368DR,4377,4846,11764,01.133,551
2023-02-20T10:00:30,42.805,6.029,CST-1368DR,4377,4840,11749,01.138,551
2023-02-20T10:03:31,42.805,6.029,CST-1368DR,4377,4845,11761,01.134,551
2023-02-20T10:06:33,42.805,6.029,CST-1368DR,4377,4847,11765,01.133,551
2023-02-20T10:09:35,42.805,6.029,CST-1368DR,4377,4846,11764,01.133,551
2023-02-20T10:12:36,42.805,6.029,CST-1368DR,4377,4846,11764,01.133,551
2023-02-20T10:15:38,42.805,6.029,CST-1368DR,4377,4847,11765,01.133,551
2023-02-20T10:18:39,42.805,6.029,CST-1368DR,4377,4849,11769,01.131,551
2023-02-20T10:21:41,42.805,6.029,CST-1368DR,4377,4849,11770,01.131,551
2023-02-20T10:24:42,42.805,6.029,CST-1368DR,4377,4849,11769,01.131,551
2023-02-20T10:27:44,42.805,6.029,CST-1368DR,4377,4844,11758,01.135,551
2023-02-20T10:30:46,42.805,6.029,CST-1368DR,4377,4849,11769,01.131,551
2023-02-20T10:33:47,42.805,6.029,CST-1368DR,4377,4846,11762,01.134,551
2023-02-20T10:36:49,42.805,6.029,CST-1368DR,4377,4847,11764,01.133,551
2023-02-20T10:39:50,42.805,6.029,CST-1368DR,4377,4842,11754,01.136,551
2023-02-20T10:42:52,42.805,6.029,CST-1368DR,4377,4847,11765,01.133,551
2023-02-20T10:45:53,42.805,6.029,CST-1368DR,4377,4841,11751,01.137,551
2023-02-20T10:48:55,42.805,6.029,CST-1368DR,4377,4846,11764,01.133,551
2023-02-20T10:51:57,42.805,6.029,CST-1368DR,4377,4845,11760,01.134,551
2023-02-20T10:54:58,42.805,6.029,CST-1368DR,4377,4845,11761,01.134,551
2023-02-20T10:58:00,42.805,6.029,CST-1368DR,4377,4845,11761,01.134,551
2023-02-20T11:01:01,42.805,6.029,CST-1368DR,4377,4844,11758,01.135,551
2023-02-20T11:04:03,42.805,6.029,CST-1368DR,4377,4846,11764,01.133,551
2023-02-20T11:07:05,42.805,6.029,CST-1368DR,4377,4844,11759,01.135,551
2023-02-20T11:10:06,42.805,6.029,CST-1368DR,4377,4845,11761,01.134,551
2023-02-20T11:13:08,42.805,6.029,CST-1368DR,4377,4843,11756,01.136,551
2023-02-20T11:16:09,42.805,6.029,CST-1368DR,4377,4843,11755,01.136,551
2023-02-20T11:19:11,42.805,6.029,CST-1368DR,4377,4845,11759,01.135,551
2023-02-20T11:22:12,42.805,6.029,CST-1368DR,4377,4845,11759,01.135,551
2023-02-20T11:25:14,42.805,6.029,CST-1368DR,4377,4845,11760,01.134,551
2023-02-20T11:28:16,42.805,6.029,CST-1368DR,4377,4847,11766,01.132,551
2023-02-20T11:31:17,42.805,6.029,CST-1368DR,4377,4846,11762,01.134,551
2023-02-20T11:34:19,42.805,6.029,CST-1368DR,4377,4844,11758,01.135,551
2023-02-20T11:37:20,42.805,6.029,CST-1368DR,4377,4843,11756,01.136,551
2023-02-20T11:40:22,42.805,6.029,CST-1368DR,4377,4844,11758,01.135,551
2023-02-20T11:43:23,42.805,6.029,CST-1368DR,4377,4842,11754,01.136,551
2023-02-20T11:46:25,42.805,6.029,CST-1368DR,4377,4848,11767,01.132,551
2023-02-20T11:49:27,42.805,6.029,CST-1368DR,4377,4844,11757,01.135,551
2023-02-20T11:52:28,42.805,6.029,CST-1368DR,4377,4844,11758,01.135,551
2023-02-20T11:55:30,42.805,6.029,CST-1368DR,4377,4846,11762,01.134,551
2023-02-20T11:58:31,42.805,6.029,CST-1368DR,4377,4843,11755,01.136,551
2023-02-20T12:01:33,42.805,6.029,CST-1368DR,4377,4847,11765,01.133,551
2023-02-20T12:04:35,42.805,6.029,CST-1368DR,4377,4846,11762,01.134,551
2023-02-20T12:07:36,42.805,6.029,CST-1368DR,4377,4849,11769,01.131,551
2023-02-20T12:10:38,42.805,6.029,CST-1368DR,4377,4850,11771,01.131,551
2023-02-20T12:13:39,42.805,6.029,CST-1368DR,4377,4845,11759,01.135,551
2023-02-20T12:16:41,42.805,6.029,CST-1368DR,4377,4845,11760,01.134,551
2023-02-20T12:19:42,42.805,6.029,CST-1368DR,4377,4842,11754,01.136,551
2023-02-20T12:22:44,42.805,6.029,CST-1368DR,4377,4840,11747,01.139,551
2023-02-20T12:25:46,42.805,6.029,CST-1368DR,4377,4842,11754,01.136,551
2023-02-20T12:28:47,42.805,6.029,CST-1368DR,4377,4844,11757,01.135,551
2023-02-20T12:31:49,42.805,6.029,CST-1368DR,4377,4841,11750,01.138,551
2023-02-20T12:34:50,42.805,6.029,CST-1368DR,4377,4843,11756,01.136,551
2023-02-20T12:37:52,42.805,6.029,CST-1368DR,4377,4846,11762,01.134,551
2023-02-20T12:40:53,42.805,6.029,CST-1368DR,4377,4843,11756,01.136,551
2023-02-20T12:43:55,42.805,6.029,CST-1368DR,4377,4843,11756,01.136,551
2023-02-20T12:46:57,42.805,6.029,CST-1368DR,4377,4840,11748,01.138,551
2023-02-20T12:49:58,42.805,6.029,CST-1368DR,4377,4840,11747,01.139,551
2023-02-20T12:53:00,42.805,6.029,CST-1368DR,4377,4834,11734,01.143,551
2023-02-20T12:56:01,42.805,6.029,CST-1368DR,4377,4841,11751,01.137,551
2023-02-20T12:59:03,42.805,6.029,CST-1368DR,4377,4841,11751,01.137,551
2023-02-20T13:02:04,42.805,6.029,CST-1368DR,4377,4845,11761,01.134,551
2023-02-20T13:05:06,42.805,6.029,CST-1368DR,4377,4841,11751,01.137,551
2023-02-20T13:08:08,42.805,6.029,CST-1368DR,4377,4843,11756,01.136,551
2023-02-20T13:11:09,42.805,6.029,CST-1368DR,4377,4833,11732,01.144,551
2023-02-20T13:14:11,42.805,6.029,CST-1368DR,4377,4845,11759,01.135,551
2023-02-20T13:17:12,42.805,6.029,CST-1368DR,4377,4838,11744,01.140,551
2023-02-20T13:20:14,42.805,6.029,CST-1368DR,4377,4837,11740,01.141,551
2023-02-20T13:23:16,42.805,6.029,CST-1368DR,4377,4838,11744,01.140,551
2023-02-20T13:26:17,42.805,6.029,CST-1368DR,4377,4845,11760,01.134,551
2023-02-20T13:29:19,42.805,6.029,CST-1368DR,4377,4847,11765,01.133,551
2023-02-20T13:32:20,42.805,6.029,CST-1368DR,4377,4846,11762,01.134,551
2023-02-20T13:35:22,42.805,6.029,CST-1368DR,4377,4837,11740,01.141,551
2023-02-20T13:38:23,42.805,6.029,CST-1368DR,4377,4839,11745,01.139,551
2023-02-20T13:41:25,42.805,6.029,CST-1368DR,4377,4838,11742,01.140,551
2023-02-20T13:44:27,42.805,6.029,CST-1368DR,4377,4840,11748,01.138,551
2023-02-20T13:47:28,42.805,6.029,CST-1368DR,4377,4840,11747,01.139,551
2023-02-20T13:50:30,42.805,6.029,CST-1368DR,4377,4838,11742,01.140,551
2023-02-20T13:53:31,42.805,6.029,CST-1368DR,4377,4840,11747,01.139,551
2023-02-20T13:56:33,42.805,6.029,CST-1368DR,4377,4841,11751,01.137,551
2023-02-20T13:59:34,42.805,6.029,CST-1368DR,4377,4841,11750,01.138,551
2023-02-20T14:02:36,42.805,6.029,CST-1368DR,4377,4840,11748,01.138,551
2023-02-20T14:05:38,42.805,6.029,CST-1368DR,4377,4845,11761,01.134,551
2023-02-20T14:08:39,42.805,6.029,CST-1368DR,4377,4840,11749,01.138,551
2023-02-20T14:11:41,42.805,6.029,CST-1368DR,4377,4844,11757,01.135,551
2023-02-20T14:14:42,42.805,6.029,CST-1368DR,4377,4844,11758,01.135,551
2023-02-20T14:17:44,42.805,6.029,CST-1368DR,4377,4844,11758,01.135,551
2023-02-20T14:20:46,42.805,6.029,CST-1368DR,4377,4842,11754,01.136,551
2023-02-20T14:23:47,42.805,6.029,CST-1368DR,4377,4847,11765,01.133,551
2023-02-20T14:26:49,42.805,6.029,CST-1368DR,4377,4843,11755,01.136,551
2023-02-20T14:29:50,42.805,6.029,CST-1368DR,4377,4843,11756,01.136,551
2023-02-20T14:32:52,42.805,6.029,CST-1368DR,4377,4838,11744,01.140,551
2023-02-20T14:35:53,42.805,6.029,CST-1368DR,4377,4847,11765,01.133,551
2023-02-20T14:38:55,42.805,6.029,CST-1368DR,4377,4846,11762,01.134,551
2023-02-20T14:41:57,42.805,6.029,CST-1368DR,4377,4843,11756,01.136,551
2023-02-20T14:44:58,42.805,6.029,CST-1368DR,4377,4845,11761,01.134,551
2023-02-20T14:48:00,42.805,6.029,CST-1368DR,4377,4847,11764,01.133,551
2023-02-20T14:51:01,42.805,6.029,CST-1368DR,4377,4847,11764,01.133,551
2023-02-20T14:54:03,42.805,6.029,CST-1368DR,4377,4848,11767,01.132,551
2023-02-20T14:57:04,42.805,6.029,CST-1368DR,4377,4848,11767,01.132,551
2023-02-20T15:00:06,42.805,6.029,CST-1368DR,4377,4849,11769,01.131,551
2023-02-20T15:03:08,42.805,6.029,CST-1368DR,4377,4848,11767,01.132,551
2023-02-20T15:06:09,42.805,6.029,CST-1368DR,4377,4848,11767,01.132,551
2023-02-20T15:09:11,42.805,6.029,CST-1368DR,4377,4847,11765,01.133,551
2023-02-20T15:12:12,42.805,6.029,CST-1368DR,4377,4844,11757,01.135,551
2023-02-20T15:15:14,42.805,6.029,CST-1368DR,4377,4850,11773,01.130,551
2023-02-20T15:18:16,42.805,6.029,CST-1368DR,4377,4848,11768,01.132,551
2023-02-20T15:21:17,42.805,6.029,CST-1368DR,4377,4849,11769,01.131,551
2023-02-20T15:24:19,42.805,6.029,CST-1368DR,4377,4842,11754,01.136,551
2023-02-20T15:27:20,42.805,6.029,CST-1368DR,4377,4844,11758,01.135,551
2023-02-20T15:30:22,42.805,6.029,CST-1368DR,4377,4845,11761,01.134,551
2023-02-20T15:33:23,42.805,6.029,CST-1368DR,4377,4845,11759,01.135,551
2023-02-20T15:36:25,42.805,6.029,CST-1368DR,4377,4842,11753,01.137,551
2023-02-20T15:39:27,42.805,6.029,CST-1368DR,4377,4841,11750,01.138,551
2023-02-20T15:42:28,42.805,6.029,CST-1368DR,4377,4838,11744,01.140,551
2023-02-20T15:45:30,42.805,6.029,CST-1368DR,4377,4841,11750,01.138,551
2023-02-20T15:48:31,42.805,6.029,CST-1368DR,4377,4839,11745,01.139,551
2023-02-20T15:51:33,42.805,6.029,CST-1368DR,4377,4842,11753,01.137,551
2023-02-20T15:54:34,42.805,6.029,CST-1368DR,4377,4842,11753,01.137,551
2023-02-20T15:57:36,42.805,6.029,CST-1368DR,4377,4843,11756,01.136,551
2023-02-20T16:00:38,42.805,6.029,CST-1368DR,4377,4840,11748,01.138,551
2023-02-20T16:03:39,42.805,6.029,CST-1368DR,4377,4843,11756,01.136,551
2023-02-20T16:06:41,42.805,6.029,CST-1368DR,4377,4842,11753,01.137,551
2023-02-20T16:09:42,42.805,6.029,CST-1368DR,4377,4841,11751,01.137,551
2023-02-20T16:12:44,42.805,6.029,CST-1368DR,4377,4844,11757,01.135,551
2023-02-20T16:15:46,42.805,6.029,CST-1368DR,4377,4853,11780,01.128,551
2023-02-20T16:18:47,42.805,6.029,CST-1368DR,4377,4844,11759,01.135,551
2023-02-20T16:21:49,42.805,6.029,CST-1368DR,4377,4844,11759,01.135,551
2023-02-20T16:24:50,42.805,6.029,CST-1368DR,4377,4835,11735,01.143,551
2023-02-20T16:27:52,42.805,6.029,CST-1368DR,4377,4845,11761,01.134,551
2023-02-20T16:30:53,42.805,6.029,CST-1368DR,4377,4840,11749,01.138,551
2023-02-20T16:33:55,42.805,6.029,CST-1368DR,4377,4843,11756,01.136,551
2023-02-20T16:36:57,42.805,6.029,CST-1368DR,4377,4843,11756,01.136,551
2023-02-20T16:39:58,42.805,6.029,CST-1368DR,4377,4843,11755,01.136,551